Location: Caltech
(34.1382°N, 118.1253°W)
Time: 04:16:41
(UTC-07:00)

Cosmos 1943 Rocket - Visible Passes

Search period start: 29 April 2017 00:00
Search period end: 09 May 2017 00:00
Orbit: 810 x 845 km, 71.0° (Epoch: 27 April)

Date Brightness Start Highest point End Pass type
(mag) Time Alt. Az. Time Alt. Az. Time Alt. Az.
29 Apr 4.4 01:09:49 10° N 01:12:00 21° NNE 01:12:00 21° NNE visible
30 Apr 4.4 00:50:47 10° N 00:52:59 20° NNE 00:52:59 20° NNE visible
01 May 4.4 00:31:47 10° N 00:33:59 20° NNE 00:33:59 20° NNE visible
01 May 4.7 02:15:12 10° NW 02:15:30 11° NW 02:15:30 11° NW visible
02 May 4.4 00:12:49 10° N 00:15:02 19° NNE 00:15:02 19° NNE visible
02 May 4.6 01:55:55 10° NW 01:56:33 13° NW 01:56:33 13° NW visible
02 May 4.4 23:53:52 10° N 23:56:07 18° NNE 23:56:07 18° NNE visible
03 May 4.6 01:36:38 10° NNW 01:37:37 15° NW 01:37:37 15° NW visible
03 May 4.4 23:34:58 10° NNE 23:37:13 16° NE 23:37:13 16° NE visible
04 May 4.5 01:17:24 10° NNW 01:18:43 17° NW 01:18:43 17° NW visible
04 May 4.4 23:16:09 10° NNE 23:18:21 15° NE 23:18:21 15° NE visible
05 May 4.3 00:58:11 10° NNW 00:59:52 20° NNW 00:59:52 20° NNW visible
05 May 4.5 22:57:24 10° NNE 22:59:31 14° NE 22:59:31 14° NE visible
06 May 4.2 00:38:58 10° NNW 00:41:02 23° NNW 00:41:02 23° NNW visible
06 May 4.5 22:38:50 10° NNE 22:40:42 12° NE 22:40:42 12° NE visible
07 May 4.0 00:19:47 10° NNW 00:22:13 27° NNW 00:22:13 27° NNW visible
07 May 4.5 22:20:46 10° NE 22:21:41 10° NE 22:21:55 10° NE visible
08 May 3.8 00:00:38 10° NNW 00:03:26 31° NNW 00:03:26 31° NNW visible
08 May 3.6 23:41:29 10° NNW 23:44:40 35° N 23:44:40 35° N visible
